Other Public Products
Issued by NWS Grand Forks, ND

Home | Current Version | Previous Version | Graphics & Text | Print | Product List | Glossary On
Versions: 1 2 3 4 5 6 7 8 9 10 11 12 13 14 15 16 17 18 19 20 21 22 23 24 25 26 27 28 29 30 31 32 33 34 35 36 37 38 39 40 41 42 43 44 45 46 47 48 49 50
000
FPUS83 KFGF 031131
OPUFGF
PRAIRIE TO PINES WEATHER ROUNDUP
NATIONAL WEATHER SERVICE EASTERN NORTH DAKOTA/GRAND FORKS ND
600 AM CDT FRI JUL 03 2015

 **SATELLITE DATA USED TO AUGMENT SKY COVER AT AUTOMATED STATIONS**
 *****  WEATHER ACROSS EASTERN NORTH DAKOTA  *****

CITY           SKY/WX    TMP DP  RH WIND       PRES   REMARKS
GRAND FORKS    FOG       61  61 100 W6        29.91R VSB 1
GRAND FORKS AF CLEAR     61  61 100 NW5       29.92R FOG
GRAND CITY NWS   N/A     61 N/A N/A NW3         N/A
BUXTON         NOT AVBL
DEVILS LAKE    CLOUDY    61  55  82 CALM      29.95R VSB<1/4
FARGO          CLEAR     63  61  93 SW6       29.92S FOG
WAHPETON ARPT  MOSUNNY   57  54  88 S5        29.95S
$$

 *****  WEATHER ACROSS CENTRAL AND WESTERN NORTH DAKOTA  *****

CITY           SKY/WX    TMP DP  RH WIND       PRES   REMARKS
JAMESTOWN      CLOUDY    64  62  93 NW3       29.96R FOG
BISMARCK       CLOUDY    62  61  96 W3        29.99S FOG
MINOT          CLOUDY    60  57  89 SW3       29.98S FOG
MINOT AFB      CLEAR     59  59 100 W5        29.98S FOG
GARRISON         N/A     60  58  92 N3        30.00R
WILLISTON      CLOUDY    60  58  92 N5        30.02R FOG
DICKINSON      CLEAR     57  54  89 CALM      30.02S FOG
HETTINGER      FOG       54  52  93 W3        30.06R VSB 1/4
$$

 *****  OTHER OBSERVATIONS NORTHEAST NORTH DAKOTA  *****

CITY           SKY/WX    TMP DP  RH WIND       PRES   REMARKS
WALHALLA       FAIR      63  63 100 MISG      29.92R FOG
LANGDON        FOG       55  55 100 W5        29.96R VSB<1/4
CAVALIER       FOG       61  59  94 W3        29.91R VSB 1/2
GRAFTON        FOG       63  63 100 W6        29.92R VSB 1/2
CANDO          FOG       55  55 100 NW6       29.97R VSB 3/4
FORT TOTTEN      N/A     64  64 100 N2        29.95S
ROLLA          FAIR      59  59 100 NW5       29.99R FOG
RUGBY          NOT AVBL
 ***** THE ABOVE OBSERVATIONS ARE NON NWS ARE NOT QUALITY
        CONTROLLED AND MAY MIS-REPORT RAIN FOR SNOW...
$$

 *****  OTHER OBSERVATIONS SOUTHEAST NORTH DAKOTA *****

CITY           SKY/WX    TMP DP  RH WIND       PRES   REMARKS
COOPERSTOWN    NOT AVBL
VALLEY CITY    FAIR      61  61 100 NW6       29.96R FOG
OAKES          FOG       59  59 100 S5        29.97S VSB 3/4
GWINNER          N/A     63  63 100 SW9       29.97R
BUFFALO        NOT AVBL
WYNDMERE       NOT AVBL
 ***** THE ABOVE OBSERVATIONS ARE NON NWS ARE NOT QUALITY
       CONTROLLED AND MAY MIS-REPORT RAIN FOR SNOW...
$$

  *****  WEATHER ACROSS NORTHERN MINNESOTA  *****

CITY           SKY/WX    TMP DP  RH WIND       PRES   REMARKS
FLAG ISLAND    CLEAR     64  61  88 NW10      29.86R FOG
WARROAD          N/A     61  57  88 W6        29.89R FOG
ROSEAU         HAZE      63  57  82 W5        29.90R VSB<1/4
HALLOCK        FOG       55  55 100 S3        29.90R VSB<1/4
THF RVR FALLS  CLOUDY    61  59  94 CALM      29.92R VSB<1/4
HALSTAD        NOT AVBL
FOSSTON        MOCLDY    57  55  94 CALM      29.94R
BAUDETTE       CLEAR     61  58  90 W5        29.87R FOG
WASKISH        CLEAR     64  61  88 W5        29.90R
CROOKSTON      FOG       57  57 100 CALM      29.92S VSB<1/4
$$
  *****  WEATHER ACROSS CENTRAL AND WEST MINNESOTA  *****

CITY           SKY/WX    TMP DP  RH WIND       PRES   REMARKS
BEMIDJI        MOCLDY    61  56  84 SW5       29.91S
PARK RAPIDS    CLEAR     58  53  84 S6        29.93F
WADENA         MOCLDY    59  54  82 SW5       29.95S
DETROIT LAKES  CLEAR     63  59  88 SW3       29.95S
MOORHEAD       CLEAR     61  59  94 S5        29.94R FOG
FERGUS FALLS   PTCLDY    59  57  94 S3        29.96S
ELBOW LAKE     FAIR      56  55  94 CALM      29.97R
MORRIS MN      CLEAR     57  55  94 SW3       29.97R
STAPLES        CLOUDY    59  54  82 SW5       29.95S
WHEATON        PTCLDY    55  54  94 S3        29.98S
$$
  *****  WEATHER ELSEWHERE ACROSS MINNESOTA  *****

CITY           SKY/WX    TMP DP  RH WIND       PRES   REMARKS
DULUTH         CLOUDY    63  52  67 W13       29.91F
INTRNTL FALLS  CLOUDY    63  57  81 W5        29.86R
ELY            MOCLDY    63  55  77 SW6       29.88R
CLOQUET        MOCLDY    63  52  67 SW7       29.93S
BRAINERD       MOCLDY    54  52  93 S5        29.95S
HIBBING        PTCLDY    61  52  72 SW3       29.90S
ALEXANDRIA     CLEAR     57  53  86 SW6       29.98S
SAINT CLOUD    CLEAR     50  49  96 CALM      29.97S
MINNEAPOLIS    PTCLDY    60  56  86 SW5       29.98S
$$

  *****  WEATHER ACROSS SOUTH DAKOTA  *****

CITY           SKY/WX    TMP DP  RH WIND       PRES   REMARKS
SIOUX FALLS    FOG       52  51  97 CALM      30.01S VSB 1/4
BROOKINGS      CLEAR     52  48  87 CALM      30.03R
WATERTOWN      CLEAR     55  54  96 SW5       30.00S FOG
HURON          FOG       58  58 100 CALM      29.99S VSB 1/4
SISSETON         N/A     65  60  84 W15       29.94F
ABERDEEN       MOCLDY    60  59  96 S3        29.98R FOG
MITCHELL       FOG       61  61 100 CALM      30.01R VSB 1/4
PIERRE         CLEAR     60  60 100 W5        29.99S FOG
MOBRIDGE       CLEAR     61  61 100 CALM      29.98S FOG
RAPID CITY     CLEAR     58  55  90 SW3       30.08S
$$

  *****  SOME WEATHER IN NEARBY STATES *****

CITY           SKY/WX    TMP DP  RH WIND       PRES   REMARKS
GLASGOW MT     CLEAR     59  54  83 E7        30.01R HAZE
GREAT FALLS MT CLEAR     65  49  56 S8        30.01S
CHEYENNE WY    PTCLDY    57  52  83 N5        30.23R
SCOTTSBLUFF NE PTCLDY    61  58  90 CALM      30.14R
OMAHA NE       CLEAR     57  55  93 N8        29.99R
DES MOINES IA  PTCLDY    60  54  80 N3        29.97S
DAVENPORT IA   MOCLDY    57  54  89 NE5       29.97S
CHICAGO IL     CLOUDY    57  52  83 N6        29.96S
EAU CLAIRE WI  FOG       53  52  96 CALM      29.98S VSB 1/4
LA CROSSE WI   CLEAR     55  53  93 SE5       30.00S
$$

  *****  SOME NATIONAL WEATHER *****

CITY           SKY/WX    TMP DP  RH WIND       PRES   REMARKS
LA GUARDIA NY  MOSUNNY   68  52  56 NE7       29.95R
RALEIGH NC     CLOUDY    71  70  96 S3        29.97R FOG
ATLANTA GA     MOCLDY    76  71  85 SW10G18   29.98R
NEW ORLEANS LA MOCLDY    79  74  84 S5        30.04R
OKLAHOMA CITY  MOCLDY    71  70  96 S8        29.91R
ALBUQUERQUE NM CLOUDY    69  58  67 NE5       30.16S
SALT LAKE CITY PTCLDY    76  50  40 SE7       29.99R
LOS ANGELES CA MOCLDY    63  61  93 W6        29.95S
BOISE ID       CLEAR     71  44  37 S5        29.92R
SEATTLE WA     CLEAR     66  55  67 CALM      29.96S
$$

*** WEATHER ACROSS MANITOBA...SASKATCHEWAN AND ONTARIO ***
                ***ONTARIO***

CITY           SKY/WX    TMP DP  RH WIND       PRES   REMARKS
GERALDTON      FOG       57  57 100 W8        29.74F VSB 1
THUNDER BAY    MOCLDY    59  59 100 N3        29.81R
SIOUX LOOKOUT  MOCLDY    52 N/A N/A NE2       29.80
TORONTO        SUNNY     55  43  62 NW8       30.02R
BIG TROUT LK   CLOUDY    55  55 100 N9G18     29.76R
PICKLE LAKE    PTCLDY    55  54  94 W8        29.77
DRYDEN         FOG       63  61  94 W7        29.82S VSB 1/8
KENORA         CLEAR     64  63  94 NW7       29.87R FOG
$$
                *** MANITOBA***

CITY           SKY/WX    TMP DP  RH WIND       PRES   REMARKS
BRANDON        FOG       54  54 100 W6        29.96R VSB 1
DAUPHIN        CLEAR     57  55  94 W8        29.94R FOG
ISLAND LAKE    CLOUDY    59  57  94 N5        29.87R
PILOT MOUND      N/A     57  57 100 W3          N/A
THE PAS        MOCLDY    55  54  94 SE3       29.88F SMOKE
THOMPSON       PTCLDY    48  45  87 W2        29.89R
WINNIPEG       CLEAR     57  57 100 W5        29.89R FOG
LYNN LAKE      CLOUDY    59  52  77 S5        29.86S
CHURCHILL      MOCLDY    54  50  87 E6        29.87R
GILLAM         PTCLDY    50  48  93 CALM      29.88R
$$
                ***SASKATCHEWAN***

CITY           SKY/WX    TMP DP  RH WIND       PRES   REMARKS
ESTEVAN        FOG       55  55 100 SW6       30.01  VSB 1/4
KINDERSLEY     PTCLDY    59  57  94 S8        29.94F
LLOYDMINSTER   CLEAR     59  54  82 S9        29.89F
PRINCE ALBERT  MOCLDY    54  52  94 SW3       29.91S
REGINA         PTCLDY    57  57 100 SE3       30.00S FOG
YORKTON        CLOUDY    61  57  88 S3        29.97R FOG


USA.gov is the U.S. government's official web portal to all federal, state and local government web resources and services.